EHI
2 1 0 0 0 0 0 0 0 0 0 0 0 0 0 0 0 0 1 3 3 3 3 3 5 6 6 5 4 4 4 3 3 3 2 1 0 0 1 3 2 1 0 0 0 0 0 0 0
2 1 0 0 0 0 0 0 0 0 0 0 0 0 0 0 0 1 2 3 3 3 2 2 3 5 6 4 4 4 4 3 3 3 1 0 0 0 2 3 2 1 0 0 0 0 0 0 0
1 1 0 0 0 0 0 0 0 0 0 0 0 0 0 0 1 2 2 2 2 2 1 0 1 3 4 4 4 4 3 3 3 2 1 1 1 0 1 2 2 1 0 0 0 0 0 0 0
1 1 0 0 0 0 0 0 0 1 0 0 0 0 0 0 1 1 1 0 1 1 0 0 0 1 3 4 4 4 3 3 2 1 1 1 1 0 0 1 1 1 1 0 0 0 0 0 1
0 0 0 0 0 0 0 0 0 0 0 0 0 0 0 0 0 0 0 0 0 0 0 0 0 1 2 3 3 3 2 2 1 0 0 1 1 0 0 0 0 0 0 0 0 0 0 1 2
0 0 0 0 0 0 0 0 0 0 0 0 0 0 0 0 0 0 0 0 0 0 0 0 0 1 2 2 2 2 2 1 1 0 0 0 0 0 0 0 0 0 0 0 0 0 1 2 3
0 0 0 0 0 0 0 0 0 0 0 0 0 0 0 0 0 0 0 0 0 0 0 0 0 0 1 1 1 2 2 2 2 1 0 1 1 0 0 1 0 0 0 0 0 0 1 2 3
0 0 0 0 0 0 0 0 0 0 0 0 0 0 0 0 0 0 0 0 0 0 0 0 0 0 0 0 1 1 2 2 2 2 1 1 1 0 0 1 1 0 0 0 0 1 2 2 2
0 0 0 0 0 0 0 0 0 0 0 0 0 0 0 1 1 1 0 0 0 0 0 0 0 0 0 0 0 0 0 1 1 1 1 1 1 0 0 0 1 0 0 0 0 1 2 2 1
0 0 0 0 0 0 0 0 1 1 0 0 0 0 0 1 2 2 1 1 0 0 0 0 0 0 0 0 0 0 0 0 0 0 0 0 0 0 0 0 0 0 0 0 0 0 1 1 0
0 0 0 0 0 0 0 0 1 1 0 0 1 1 1 1 2 3 2 1 1 0 0 0 0 0 0 0 0 0 0 0 0 0 0 0 0 0 0 0 0 0 0 0 0 0 0 0 0
0 0 0 0 0 0 0 0 0 0 0 0 1 1 1 0 1 2 2 1 1 0 0 0 0 0 0 0 0 0 0 0 0 0 0 0 0 0 0 0 0 0 0 0 0 0 0 0 0
0 0 0 0 0 0 0 0 0 0 0 0 0 0 0 0 0 1 2 2 1 0 0 0 0 0 0 0 0 0 0 0 0 0 0 0 0 0 0 0 0 0 0 0 0 0 0 0 0
0 0 0 0 0 0 0 0 0 0 0 0 0 0 0 0 0 1 2 2 1 0 0 0 0 0 0 0 0 0 0 0 0 0 0 0 0 0 0 0 0 0 0 0 0 0 0 0 0
0 0 0 0 0 0 0 0 0 0 0 1 1 1 1 0 1 2 3 2 1 0 0 0 0 0 0 0 0 0 0 0 0 0 0 0 0 0 0 0 0 0 0 0 0 0 0 0 0
0 0 0 0 0 0 0 0 1 1 1 1 2 2 1 1 2 3 3 2 1 0 0 0 0 0 0 0 0 0 0 0 0 0 0 0 0 0 0 0 0 0 0 0 0 0 0 0 0
0 0 0 0 0 0 0 0 1 3 3 1 1 2 1 1 2 3 3 2 1 0 0 0 0 0 1 1 0 0 0 0 0 0 0 0 0 0 0 0 0 0 0 0 0 0 0 0 0
0 0 0 0 0 0 0 0 1 4 4 2 0 0 0 1 2 3 3 2 1 0 0 0 0 1 2 2 1 0 0 0 0 0 0 0 0 0 0 0 0 0 0 0 0 0 0 0 0
0 0 0 0 0 0 0 0 1 3 4 3 2 0 0 1 3 4 3 3 1 0 0 0 1 2 3 3 2 1 1 0 0 0 0 0 0 0 0 0 0 0 0 0 0 0 0 0 0
0 0 0 0 0 0 0 0 0 1 3 4 4 2 1 1 3 4 4 4 3 1 0 1 2 3 3 4 4 3 2 1 0 0 0 0 0 0 0 0 0 0 0 0 0 0 0 0 0
0 0 0 0 0 0 0 0 0 0 1 2 3 3 2 2 4 4 4 5 5 2 1 2 3 3 4 5 6 5 4 2 0 0 0 0 0 0 0 0 0 0 0 0 0 0 0 0 0
0 0 0 0 0 0 0 0 0 0 0 0 1 1 2 3 5 5 5 7 7 6 4 4 4 4 5 6 6 5 4 2 0 0 0 0 0 0 0 0 0 1 1 1 1 0 0 0 0
0 0 0 0 0 0 0 0 0 0 0 0 0 0 1 3 4 4 5 7 9 10 9 8 7 7 6 5 5 3 2 1 0 0 0 0 0 0 0 0 1 2 3 2 1 1 0 0 0
0 0 0 0 0 0 0 0 0 0 0 0 0 0 0 2 3 4 4 6 9 11 13 12 11 9 6 4 3 1 1 0 0 0 0 0 0 0 0 0 1 2 3 3 2 1 0 0 0
0 0 0 0 0 0 0 0 0 0 0 0 0 0 0 1 3 4 4 5 8 11 13 12 11 9 7 5 3 1 1 0 0 0 0 0 0 0 0 0 0 1 1 2 1 1 0 0 0
0 0 0 0 0 0 0 0 0 0 0 0 0 0 0 1 3 5 6 6 8 11 11 9 8 9 8 5 4 3 2 1 0 0 0 0 0 0 0 0 0 0 0 0 0 0 0 0 0
0 0 0 0 0 0 0 0 0 0 0 0 0 0 0 1 3 4 6 7 9 11 11 8 7 8 7 6 5 4 3 2 1 0 0 0 0 0 0 0 0 1 1 1 0 0 0 0 1
0 0 0 0 0 0 0 0 0 0 0 0 0 0 1 2 3 4 5 7 9 10 10 9 8 9 9 8 6 5 4 2 1 0 0 0 0 0 0 0 0 1 2 1 1 1 1 1 2
0 0 0 0 0 0 0 0 0 0 0 0 0 0 2 3 3 3 5 7 8 9 8 8 10 12 12 10 8 7 5 3 2 1 0 0 0 0 0 0 0 1 1 1 1 2 2 3 5
0 0 0 0 0 0 0 0 0 0 0 0 0 0 1 3 3 3 5 7 9 9 7 8 11 14 14 12 9 7 5 4 4 2 1 0 0 0 0 0 0 0 0 0 0 1 2 5 6
Wind_Speed
8 6 3 1 2 3 2 2 0 1 2 2 4 5 5 3 2 2 1 3 5 4 3 5 7 8 9 9 9 10 10 11 11 10 10 10 11 10 10 10 10 10 9 9 9 8 7 7 6
6 5 2 1 3 2 3 2 2 2 3 3 4 5 5 4 3 3 2 3 5 4 3 4 7 8 9 9 9 10 10 10 10 10 10 10 10 10 10 9 9 9 9 8 8 7 7 6 5
6 4 1 2 2 1 1 1 2 3 2 2 3 4 4 3 2 2 2 5 5 4 3 4 8 8 9 9 9 10 10 10 9 9 9 10 9 9 9 8 8 8 8 7 7 7 6 6 5
3 1 1 3 2 1 2 1 2 3 3 4 4 5 4 3 2 3 6 7 5 3 2 3 7 7 8 8 8 9 9 9 9 9 9 9 9 9 8 8 8 8 7 6 6 6 5 5 4
1 2 4 3 2 2 1 2 2 3 2 4 4 4 3 4 5 7 7 6 5 3 2 2 5 7 7 7 7 8 8 8 8 8 8 8 8 8 7 8 8 7 6 5 5 4 4 3 2
2 3 4 2 3 2 2 2 4 4 4 4 4 4 3 3 5 6 6 5 4 3 2 1 4 6 7 7 7 7 7 7 7 7 7 8 7 7 7 7 6 5 5 4 4 3 3 2 1
2 3 2 0 1 2 1 2 3 4 4 2 3 4 2 2 3 5 5 5 4 3 2 2 2 3 5 6 6 6 6 6 6 6 6 6 6 6 6 5 5 4 4 3 3 2 2 2 2
2 3 2 1 1 1 1 2 3 3 3 3 3 5 3 3 6 6 6 4 3 3 2 2 2 3 2 2 4 5 5 5 5 5 5 5 4 4 3 3 3 3 2 2 1 2 2 2 2
2 4 1 2 2 1 2 3 2 3 5 3 3 3 4 9 9 7 5 3 2 2 1 1 2 2 2 1 2 3 4 4 4 3 3 3 2 2 1 1 1 1 1 1 1 1 1 2 3
3 2 3 2 3 3 2 3 3 4 3 3 4 6 8 9 9 7 5 4 3 2 1 1 1 1 1 1 2 2 2 2 2 2 2 2 2 1 1 1 1 2 2 2 2 2 3 3 2
2 3 2 0 2 4 4 3 3 6 2 3 6 9 9 8 7 6 5 4 5 3 2 2 2 1 1 1 1 1 1 1 1 2 1 1 1 1 1 1 1 2 2 2 2 3 2 1 1
2 3 1 1 3 3 3 4 3 3 3 4 8 10 9 8 7 7 6 5 4 3 3 3 2 2 1 1 1 1 1 1 0 0 1 1 1 1 1 1 1 1 1 1 1 1 1 1 1
2 1 1 3 4 3 4 4 3 1 4 7 9 9 8 7 6 4 4 4 4 4 4 3 3 3 2 1 1 1 1 1 1 0 0 1 1 0 0 1 1 1 1 1 1 1 1 1 1
1 2 3 3 4 3 4 2 3 2 6 8 8 7 7 7 6 4 4 4 5 4 4 4 4 3 3 2 1 1 1 1 1 1 1 1 1 1 0 0 0 0 0 0 0 0 0 0 0
2 4 4 2 2 2 4 2 1 4 7 8 7 6 6 6 6 6 6 5 5 5 4 4 4 3 3 3 2 2 1 1 1 1 1 1 1 2 1 1 0 0 0 1 1 1 1 1 1
3 4 2 2 1 2 3 2 2 6 8 7 7 6 6 5 6 6 6 5 4 4 4 4 5 4 4 3 2 1 1 1 1 1 0 1 1 2 1 1 0 0 1 1 1 1 1 1 1
4 1 1 2 1 2 3 3 3 6 7 7 6 6 6 5 5 5 5 5 5 5 5 4 4 4 4 3 2 1 1 1 0 0 0 1 1 2 1 1 0 1 1 0 0 1 1 0 1
2 1 2 3 2 3 2 3 3 7 8 7 6 6 6 7 8 6 5 5 5 5 5 5 4 3 3 2 2 1 1 0 0 0 0 1 1 1 1 1 0 1 1 1 1 1 1 0 0
2 2 2 3 1 3 3 3 4 6 6 6 6 6 7 8 6 4 5 5 5 4 4 4 4 3 3 2 2 1 1 0 0 0 1 1 1 1 1 1 1 1 1 1 1 1 1 1 1
2 1 1 1 1 2 1 2 2 5 7 7 8 8 8 6 4 5 5 5 6 6 5 5 4 4 4 2 2 2 1 1 1 0 0 0 1 1 1 1 1 1 1 1 1 1 1 0 1
2 3 3 2 2 3 3 4 2 1 3 4 5 6 7 9 8 7 6 6 6 6 6 6 5 4 4 3 2 2 2 1 1 0 0 1 1 1 1 1 1 1 1 1 1 1 2 1 0
2 3 3 3 4 2 2 2 5 2 2 4 6 6 8 8 8 8 8 7 7 7 6 5 5 4 4 4 4 4 3 2 2 1 1 1 1 1 1 1 1 1 1 1 1 1 1 2 1
3 3 4 3 4 2 3 1 7 2 3 5 6 7 7 7 9 9 9 9 7 6 6 5 5 4 4 4 5 4 3 2 1 1 1 1 1 1 1 1 1 2 1 1 1 1 1 1 1
5 6 6 6 5 2 2 1 5 3 4 4 4 6 6 6 7 7 6 6 5 5 5 5 5 5 4 4 4 5 4 3 2 2 2 1 1 1 1 1 1 2 1 1 1 1 1 1 1
5 6 4 5 4 3 2 1 7 6 4 4 4 4 4 5 6 6 7 7 7 7 7 6 6 5 4 4 4 4 5 5 4 3 3 2 1 1 2 1 1 1 1 1 1 1 1 1 1
3 7 7 4 4 3 1 3 7 4 3 3 2 2 2 4 5 6 7 7 7 7 6 6 6 5 5 5 4 4 4 3 3 3 3 3 2 2 2 2 2 1 1 1 2 1 1 1 1
5 3 5 7 2 0 3 5 7 2 3 2 1 1 2 4 4 5 6 6 6 7 7 6 6 5 4 4 4 3 4 4 4 3 3 3 3 2 2 2 2 2 2 1 2 1 2 1 1
5 7 5 6 5 1 3 3 4 5 4 3 2 2 2 2 3 4 4 5 5 5 5 4 5 5 4 4 4 4 3 4 3 3 4 3 3 2 2 2 2 2 2 2 2 2 1 2 1
4 4 5 4 4 6 2 6 4 4 4 3 4 3 3 4 4 5 4 4 4 4 5 4 4 4 4 4 4 3 3 3 3 3 3 3 2 3 3 3 2 3 3 2 2 2 2 2 2
4 6 7 5 3 3 4 7 3 2 2 2 2 2 2 2 2 2 3 4 4 4 4 4 4 4 4 4 4 3 3 3 3 3 3 3 3 3 3 3 2 3 2 2 3 3 2 2 2
Wind_Direction
158 147 151 164 53 41 357 317 314 41 44 35 63 77 87 77 95 113 17 106 107 110 113 121 120 121 122 122 122 123 125 127 127 126 125 126 127 127 125 124 123 124 124 123 124 123 123 124 128
150 158 179 83 68 37 328 339 63 49 120 125 74 70 70 60 59 97 102 107 108 109 102 118 123 124 123 122 122 124 125 127 126 127 128 128 129 129 129 128 127 126 126 127 126 123 123 125 131
166 190 135 67 70 146 298 3 91 86 92 75 67 55 66 75 95 127 140 121 105 98 100 126 129 128 126 123 123 123 124 126 127 126 127 128 128 130 130 129 128 126 125 126 125 124 122 127 133
169 160 59 62 36 268 197 185 124 111 52 49 80 64 55 45 123 133 122 119 111 101 103 132 134 132 128 124 124 125 126 127 126 126 126 127 126 126 129 128 126 127 127 127 124 125 126 132 137
123 83 50 31 347 339 70 118 100 83 55 52 73 79 46 23 90 112 118 121 124 118 105 116 128 131 130 129 129 128 127 127 127 128 128 129 128 127 127 124 124 125 124 121 122 124 128 132 137
59 63 61 12 343 6 51 64 95 83 80 73 74 83 51 59 100 115 116 119 119 113 101 96 128 131 137 137 137 132 131 129 131 131 131 130 128 125 124 124 123 123 122 121 124 127 127 129 115
99 81 95 103 350 3 104 92 98 104 87 87 99 91 76 86 111 113 106 102 96 92 86 62 62 99 128 132 136 138 137 137 136 135 133 131 128 126 125 125 125 123 120 118 115 111 102 91 78
132 94 58 46 93 331 101 87 101 98 89 98 98 122 161 163 122 105 94 86 82 76 67 65 55 53 54 86 126 138 141 137 133 134 134 129 125 122 122 122 139 136 130 128 118 94 78 59 53
107 69 19 222 179 192 118 101 94 76 93 82 84 127 142 128 120 110 99 88 95 111 74 65 72 66 63 63 108 118 135 131 120 122 122 95 58 63 89 121 140 129 115 112 105 86 75 62 48
90 110 241 218 174 144 119 110 128 102 90 82 75 86 112 125 132 139 148 158 166 177 166 130 121 108 85 89 66 53 77 80 72 57 67 60 52 30 22 13 16 21 35 43 45 44 49 59 46
148 201 247 49 130 124 120 110 113 124 140 173 154 140 133 137 143 156 171 177 183 182 177 170 167 138 113 86 76 58 64 66 59 59 66 68 48 24 23 18 10 20 25 33 31 33 37 54 65
177 258 205 96 104 105 125 128 116 144 187 158 149 144 143 149 161 170 176 177 169 174 190 181 166 151 154 128 99 101 97 92 100 82 107 102 69 32 18 18 355 29 27 25 19 27 19 28 48
189 288 83 109 97 97 98 105 111 112 118 119 130 140 151 158 168 176 171 168 166 179 189 182 169 172 172 154 171 137 145 164 188 221 186 155 149 157 13 351 3 16 27 40 23 17 6 23 34
211 76 78 90 104 111 115 95 88 127 128 129 142 159 166 169 174 168 168 173 178 182 187 176 174 175 167 173 179 165 170 180 193 223 217 184 171 179 171 308 318 8 31 43 21 332 13 37 78
79 70 49 59 83 108 102 60 174 157 143 149 162 172 178 181 179 185 188 185 182 181 178 175 176 169 174 182 185 167 178 185 210 234 219 192 182 180 182 214 262 356 80 59 54 48 50 50 51
52 61 49 291 126 140 121 238 211 154 157 170 176 182 188 197 196 199 191 186 181 174 172 183 179 166 175 177 172 157 168 174 209 227 209 185 179 178 176 188 233 94 93 90 107 81 54 41 35
37 76 233 270 219 155 161 228 194 162 168 184 187 192 195 204 212 210 197 186 181 179 174 178 179 168 173 168 152 146 136 159 199 155 161 170 172 168 163 172 195 96 97 81 114 91 102 65 359
240 235 236 236 236 158 196 240 200 177 180 192 197 202 204 212 220 210 199 187 180 178 172 173 172 166 154 134 112 93 82 59 63 124 195 174 167 159 150 159 124 103 109 79 66 93 79 98 353
183 195 234 257 228 155 214 246 224 185 189 196 202 209 214 221 220 199 193 178 171 173 172 176 172 168 146 134 141 136 152 157 141 203 206 175 159 156 152 163 148 124 117 121 116 118 85 51 71
181 208 247 309 79 133 181 286 248 190 198 201 203 210 214 215 207 199 194 182 183 186 185 182 184 176 170 163 155 149 143 151 164 303 24 165 170 181 185 177 175 148 126 103 110 119 110 34 60
226 198 202 185 57 56 71 339 303 240 213 210 211 210 210 208 206 199 194 194 189 193 192 193 190 183 178 161 125 102 76 55 47 28 317 296 211 189 178 180 174 156 157 180 191 159 160 173 27
247 233 172 141 100 3 64 302 299 278 252 232 228 217 216 213 203 196 194 195 198 200 190 189 185 185 181 165 159 162 169 183 205 201 224 276 243 192 184 180 181 170 171 191 226 181 175 163 181
186 93 97 99 110 61 25 101 294 330 274 255 239 228 222 211 200 198 198 197 197 191 184 180 176 185 182 176 174 172 179 188 180 165 191 262 307 273 218 191 190 181 186 198 203 172 156 164 177
127 74 59 51 67 44 285 157 286 268 243 263 251 232 217 203 196 194 190 182 186 183 179 175 176 188 182 180 182 182 185 183 180 188 201 229 255 275 264 209 208 193 188 202 202 181 163 174 170
86 87 42 15 22 262 276 183 255 261 246 238 246 240 212 190 183 180 183 185 187 186 185 182 183 193 186 183 191 193 192 188 195 198 204 212 225 238 244 218 212 203 198 200 185 162 173 182 171
148 132 151 179 202 271 333 236 259 281 282 259 238 220 179 182 185 185 187 188 189 188 185 185 188 193 187 188 197 197 195 196 205 206 205 213 221 229 225 202 205 207 197 202 175 173 195 180 195
130 139 151 127 129 65 289 290 304 334 345 352 6 77 174 196 197 194 187 181 181 184 185 184 183 188 192 193 191 193 194 197 205 212 214 219 224 222 212 198 193 199 195 191 166 178 201 190 212
124 137 101 111 136 212 297 286 268 298 303 310 306 264 242 213 197 195 188 184 183 183 176 169 174 184 187 187 197 204 200 201 194 207 220 219 220 212 191 198 196 199 197 187 180 190 193 188 223
106 93 101 107 142 151 217 270 238 234 249 252 260 255 234 215 204 196 185 173 164 158 160 169 175 180 187 190 194 195 196 192 190 205 217 217 209 194 195 201 196 198 196 190 186 205 196 204 235
147 155 146 145 189 162 164 260 296 243 250 248 271 284 260 229 212 183 167 151 151 156 160 171 178 187 199 195 185 194 196 184 190 210 215 205 199 196 197 194 200 211 199 187 185 204 204 212 231